Location: Newark
(55.7833°N, 49.1667°E)
Time: 14:01:24
(UTC+00:00)

Envisat - Visible Passes

Search period start: 23 September 2020 00:00
Search period end: 03 October 2020 00:00
Orbit: 764 x 766 km, 98.1° (Epoch: 23 September)

Date Brightness Start Highest point End Pass type
(mag) Time Alt. Az. Time Alt. Az. Time Alt. Az.
23 Sep 6.3 01:23:15 10° NE 01:26:06 15° E 01:28:55 10° ESE visible
24 Sep 6.3 15:28:18 10° WSW 15:31:15 15° W 15:34:12 10° NW visible
25 Sep 5.9 01:47:55 10° NE 01:51:54 23° E 01:55:52 10° SE visible
26 Sep 6.5 01:12:32 10° ENE 01:14:33 12° E 01:16:32 10° ESE visible
27 Sep 6.1 15:16:14 10° SW 15:19:43 18° W 15:23:13 10° NW visible
28 Sep 6.1 01:36:49 10° NE 01:40:24 19° E 01:43:58 10° SE visible
29 Sep 6.6 15:43:47 10° WSW 15:45:35 12° W 15:47:22 10° WNW visible
30 Sep 5.4 02:01:45 10° NNE 02:06:09 29° E 02:10:31 10° SSE visible
30 Sep 6.0 15:04:18 10° SW 15:08:12 22° W 15:12:08 10° NW visible
01 Oct 6.2 01:25:49 10° NE 01:28:52 16° E 01:31:55 10° ESE visible
02 Oct 6.4 15:31:20 10° WSW 15:34:01 14° W 15:36:44 10° NW visible
